GW1774 Weather Reports


time (UTC)temp
C
wind
direction
speed
KPH
gust
KPH
rain 1hr
cm
rain 24hr
cm
rain mn
cm
humidity
%
barometer
mb
20260505173517 27 100 3.2 4.8 0.00 0.00 0.00 35 1016.5
20260505172533 26 111 1.6 4.8 0.00 0.00 0.00 35 1016.6
20260505171548 26 77 3.2 6.4 0.00 0.00 0.00 36 1016.6
20260505170524 26 150 3.2 12.9 0.00 0.00 0.00 36 1016.8
20260505165520 26 330 1.6 4.8 0.00 0.00 0.00 35 1016.9
20260505164536 26 112 4.8 11.3 0.00 0.00 0.00 38 1017.1
20260505163531 26 115 3.2 6.4 0.00 0.00 0.00 38 1017.2
20260505162527 26 101 1.6 4.8 0.00 0.00 0.00 39 1017.1
20260505161522 25 265 1.6 3.2 0.00 0.00 0.00 42 1017.2
20260505160518 25 108 3.2 4.8 0.00 0.00 0.00 43 1017.3
20260505152521 23 101 3.2 4.8 0.00 0.00 0.00 51 1017.6
20260505151517 22 114 1.6 3.2 0.00 0.00 0.00 53 1017.5
20260505150533 22 96 3.2 9.7 0.00 0.00 0.00 52 1017.6
20260505140547 19 105 1.6 6.4 0.00 0.00 0.00 62 1017.5
20260505124532 15 62 0.0 3.2 0.00 0.00 0.00 76 1017.8
20260505123548 14 87 0.0 3.2 0.00 0.00 0.00 79 1017.8
20260505122524 13 52 0.0 1.6 0.00 0.00 0.00 83 1017.6
20260505121520 12 58 0.0 1.6 0.00 0.00 0.00 87 1017.7
20260505120535 11 69 0.0 1.6 0.00 0.00 0.00 88 1017.6
20260505115531 11 0.0 0.0 0.00 0.00 0.00 88 1017.6
20260505114526 11 0.0 0.0 0.00 0.00 0.00 89 1017.5
20260505113522 11 0.0 0.0 0.00 0.00 0.00 88 1017.5
20260505112518 11 0.0 0.0 0.00 0.00 0.00 89 1017.5
20260505111553 10 0.0 0.0 0.00 0.00 0.00 90 1017.4
20260505110528 10 0.0 0.0 0.00 0.00 0.00 90 1017.3
20260505101523 10 0.0 0.0 0.00 0.00 0.00 89 1016.6
20260505100519 10 0.0 0.0 0.00 0.00 0.00 88 1016.5
20260505095614 11 0.0 0.0 0.00 0.00 0.00 87 1016.5
20260505094549 11 0.0 0.0 0.00 0.00 0.00 86 1016.4
20260505093525 11 0.0 0.0 0.00 0.00 0.00 85 1016.2
20260505092520 11 0.0 0.0 0.00 0.00 0.00 84 1016.2
20260505091535 11 0.0 0.0 0.00 0.00 0.00 83 1016.2
20260505090531 12 69 0.0 0.0 0.00 0.00 0.00 82 1016.1
20260505085526 12 69 0.0 0.0 0.00 0.00 0.00 80 1016.1
20260505084521 12 69 0.0 0.0 0.00 0.00 0.00 79 1016.1
20260505083517 12 0.0 0.0 0.00 0.00 0.00 79 1016.0
20260505082533 13 69 0.0 0.0 0.00 0.00 0.00 78 1016.1
20260505081609 13 69 0.0 0.0 0.00 0.00 0.00 77 1015.9
20260505080524 13 0.0 0.0 0.00 0.00 0.00 76 1015.9
20260505075521 13 69 0.0 0.0 0.00 0.00 0.00 75 1016.0
20260505074516 13 0.0 0.0 0.00 0.00 0.00 74 1016.0
20260505073532 14 69 0.0 0.0 0.00 0.00 0.00 73 1015.8
20260505072527 14 0.0 0.0 0.00 0.00 0.00 73 1015.7
20260505071523 14 0.0 0.0 0.00 0.00 0.00 72 1015.7
20260505070519 15 0.0 0.0 0.00 0.00 0.00 71 1015.7
20260505065535 15 0.0 0.0 0.00 0.00 0.00 70 1015.6
20260505064530 15 0.0 0.0 0.00 0.00 0.00 68 1015.6
20260505063546 15 70 0.0 1.6 0.00 0.00 0.00 68 1015.7
20260505062521 15 0.0 0.0 0.00 0.00 0.00 68 1015.6
20260505061538 15 348 0.0 1.6 0.00 0.00 0.00 67 1015.6
20260505060533 16 344 0.0 1.6 0.00 0.00 0.00 67 1015.6
20260505055529 16 320 0.0 1.6 0.00 0.00 0.00 66 1015.7
20260505054525 16 8 0.0 1.6 0.00 0.00 0.00 66 1015.7
20260505053521 16 12 0.0 0.0 0.00 0.00 0.00 65 1015.7
20260505052516 16 35 0.0 1.6 0.00 0.00 0.00 64 1015.7
20260505051552 16 111 0.0 1.6 0.00 0.00 0.00 64 1015.8
20260505050527 16 206 0.0 1.6 0.00 0.00 0.00 64 1015.8
20260505041526 17 129 0.0 3.2 0.00 0.00 0.00 61 1015.8
20260505040522 17 128 0.0 1.6 0.00 0.00 0.00 60 1015.8
20260505035517 17 270 0.0 1.6 0.00 0.00 0.00 59 1015.8
20260505034533 17 0.0 0.0 0.00 0.00 0.00 58 1015.8
20260505033549 17 308 0.0 1.6 0.00 0.00 0.00 57 1015.9
20260505032525 17 311 0.0 0.0 0.00 0.00 0.00 57 1015.9
20260505031520 16 311 0.0 1.6 0.00 0.00 0.00 57 1015.8
20260505030516 16 0.0 0.0 0.00 0.00 0.00 57 1015.9
20260505025531 17 333 0.0 3.2 0.00 0.00 0.00 57 1015.9
20260505024527 17 0.0 0.0 0.00 0.00 0.00 59 1015.8
20260505023523 17 116 0.0 0.0 0.00 0.00 0.00 52 1015.7
20260505022518 17 116 0.0 0.0 0.00 0.00 0.00 54 1015.6
20260505021533 18 116 0.0 0.0 0.00 0.00 0.00 53 1015.5
20260505020529 18 0.0 0.0 0.00 0.00 0.00 50 1015.4
20260505015524 18 0.0 0.0 0.00 0.00 0.00 49 1015.3
20260505014519 17 0.0 0.0 0.00 0.00 0.00 52 1015.3
20260505013534 17 0.0 0.0 0.00 0.00 0.00 56 1015.0
20260505012550 17 0.0 0.0 0.00 0.00 0.00 53 1014.9
20260505011525 17 0.0 0.0 0.00 0.00 0.00 60 1014.9
20260505010521 17 0.0 0.0 0.00 0.00 0.00 57 1014.7
20260505005516 17 0.0 0.0 0.00 0.00 0.00 54 1014.7
20260505004531 17 0.0 0.0 0.00 0.00 0.00 54 1014.4
20260505003527 18 0.0 0.0 0.00 0.00 0.00 54 1014.3
20260505002543 18 0.0 0.0 0.00 0.00 0.00 50 1014.2
20260505001518 19 0.0 0.0 0.00 0.00 0.00 51 1014.1
20260505000533 20 0.0 0.0 0.00 0.00 0.00 46 1014.0
20260504235528 21 0.0 0.0 0.00 0.00 0.00 42 1014.0
20260504234524 21 0.0 0.0 0.00 0.00 0.00 40 1014.0
20260504233519 22 0.0 0.0 0.00 0.00 0.00 37 1013.8
20260504232535 22 0.0 0.0 0.00 0.00 0.00 37 1013.7
20260504231531 22 0.0 0.0 0.00 0.00 0.00 38 1013.7
20260504230527 23 0.0 0.0 0.00 0.00 0.00 38 1013.7
20260504225522 23 347 0.0 1.6 0.00 0.00 0.00 34 1013.7
20260504224518 24 345 0.0 1.6 0.00 0.00 0.00 31 1013.8
20260504223534 25 324 0.0 1.6 0.00 0.00 0.00 31 1013.8
20260504222529 25 84 1.6 3.2 0.00 0.00 0.00 30 1013.8
20260504221525 25 327 1.6 3.2 0.00 0.00 0.00 30 1013.9
20260504220521 25 230 1.6 3.2 0.00 0.00 0.00 32 1013.9
20260504215516 25 126 1.6 4.8 0.00 0.00 0.00 30 1013.9
20260504214532 25 276 1.6 4.8 0.00 0.00 0.00 29 1013.8
20260504213528 26 118 1.6 4.8 0.00 0.00 0.00 29 1013.8
20260504212524 26 120 1.6 4.8 0.00 0.00 0.00 29 1013.8
20260504211519 27 58 1.6 3.2 0.00 0.00 0.00 28 1013.9
20260504210535 26 145 0.0 3.2 0.00 0.00 0.00 28 1013.8
20260504205531 26 123 3.2 9.7 0.00 0.00 0.00 29 1013.9
20260504204526 27 241 1.6 3.2 0.00 0.00 0.00 29 1014.0
20260504203522 27 91 1.6 3.2 0.00 0.00 0.00 28 1014.0
20260504202518 26 125 3.2 4.8 0.00 0.00 0.00 29 1014.1
20260504201534 26 119 1.6 6.4 0.00 0.00 0.00 28 1014.2
20260504200530 27 332 0.0 1.6 0.00 0.00 0.00 26 1014.3
20260504195525 27 124 3.2 4.8 0.00 0.00 0.00 27 1014.5
20260504194521 26 110 3.2 4.8 0.00 0.00 0.00 27 1014.6
20260504193517 27 132 3.2 4.8 0.00 0.00 0.00 27 1014.6
20260504192532 26 140 1.6 4.8 0.00 0.00 0.00 29 1014.8
20260504191528 27 118 3.2 6.4 0.00 0.00 0.00 26 1014.9
20260504190524 27 207 3.2 4.8 0.00 0.00 0.00 28 1015.0
20260504185520 26 109 1.6 6.4 0.00 0.00 0.00 28 1015.2
20260504184535 26 109 1.6 4.8 0.00 0.00 0.00 30 1015.2
20260504183531 26 290 1.6 3.2 0.00 0.00 0.00 29 1015.2
20260504182527 26 110 1.6 4.8 0.00 0.00 0.00 29 1015.3
20260504181522 25 111 1.6 4.8 0.00 0.00 0.00 31 1015.6
20260504180538 25 230 1.6 1.6 0.00 0.00 0.00 29 1015.6
20260504175534 25 26 1.6 6.4 0.00 0.00 0.00 29 1015.7
20260504174550 26 35 1.6 3.2 0.00 0.00 0.00 29 1015.6